Presure
250 221 225 220 230 227 224 228 226 226 218 239 257 240 219 215 214 263 257 263 268 265 258 246 249 231 218 215 209 218 207 223 218 207 212 206 200 207 201 197 177 211 203 205
264 239 221 210 220 205 195 205 209 212 222 219 225 226 228 216 215 223 212 221 219 221 217 247 242 238 236 224 221 225 222 221 218 222 223 220 217 195 203 192 189 201 197 188
279 265 264 224 211 209 204 210 201 206 202 218 218 216 213 203 202 198 201 207 193 202 211 216 241 231 234 236 229 225 214 216 217 210 196 195 207 195 192 204 202 200 204 193
312 280 258 258 241 209 211 209 210 203 195 206 214 205 193 202 197 210 203 199 211 210 210 207 220 216 215 221 222 223 222 218 185 212 202 186 186 195 191 198 195 200 206 201
300 320 301 286 243 243 250 240 235 224 209 202 207 196 205 201 203 197 197 200 210 202 215 214 214 210 207 215 212 221 215 212 200 194 198 197 195 194 200 202 198 206 211 224
286 296 308 293 269 259 241 254 253 252 239 242 215 210 207 208 201 207 211 211 229 220 215 213 218 210 211 197 200 204 198 197 201 201 201 208 213 107 198 211 120 227 233 242
312 318 300 288 289 277 263 247 267 243 248 247 244 244 239 238 230 224 221 210 218 221 224 236 227 207 216 205 216 213 199 197 202 205 212 205 212 223 221 226 230 240 254 254
315 302 330 282 284 292 275 257 271 255 241 250 251 241 242 243 230 241 241 227 223 239 234 222 230 239 234 220 218 212 209 216 221 222 225 228 222 229 236 255 257 257 253 245
298 302 296 291 303 279 271 281 252 234 252 256 245 244 243 241 242 238 241 235 236 236 239 230 241 214 237 212 218 222 253 225 232 238 224 235 248 254 239 271 289 275 264 269
275 278 278 280 280 282 289 284 270 276 285 270 264 265 259 268 254 254 261 243 247 241 228 227 229 227 239 239 239 234 241 258 270 273 268 255 96 282 271 273 267 265 264 265
294 295 283 286 290 287 288 292 316 280 299 271 268 266 265 267 260 253 246 262 267 260 217 244 243 239 236 251 255 275 278 281 286 283 269 277 90 222 295 281 281 113 209 270
296 282 293 280 283 285 283 286 276 281 285 275 300 303 280 271 273 278 280 281 286 298 291 304 297 279 288 280 272 270 275 280 284 276 272 283 287 311 286 282 271 268 273 274
273 292 288 292 281 285 278 288 280 285 272 292 280 267 257 270 266 276 272 276 292 297 292 275 275 276 271 268 267 266 273 274 270 268 271 274 311 308 304 300 273 276 280 282
307 293 291 275 273 280 273 281 276 273 275 282 279 278 280 271 275 276 271 276 276 271 272 265 268 265 265 262 264 267 267 254 260 271 302 306 297 295 242 278 298 293 289 285
298 287 302 308 282 278 292 276 277 277 273 276 279 276 274 274 274 275 277 273 271 267 264 263 259 255 262 264 266 272 252 259 274 313 302 286 295 295 298 301 303 297 317 312
312 301 304 293 300 303 313 321 285 268 258 284 278 281 282 280 274 283 283 277 280 277 265 264 263 266 269 272 277 275 303 299 251 100 96 103 110 304 304 314 318 316 311 309
373 379 386 365 356 346 340 342 342 346 335 333 339 341 343 341 337 331 331 330 324 322 320 316 317 318 325 326 323 294 311 214 85 318 320 321 320 323 322 320 314 311 312 310
341 344 338 321 331 323 311 317 324 314 303 304 302 306 302 301 304 303 304 302 302 301 299 303 307 309 310 309 304 306 308 313 311 312 316 323 332 348 355 386 342 323 318 316
326 325 320 322 312 313 317 307 311 311 310 314 312 136 303 301 305 309 309 310 313 309 258 97 252 299 301 307 307 310 321 341 381 385 375 371 380 379 429 470 458 409 380 391
325 323 314 315 312 307 304 310 304 304 300 301 296 296 301 306 307 306 305 305 299 297 299 300 306 311 311 318 371 366 390 395 375 349 356 377 376 375 391 371 374 352 340 324
341 331 319 316 311 307 308 311 311 308 308 310 308 306 304 305 301 299 171 302 303 304 300 308 332 354 335 344 332 331 330 337 338 347 355 350 348 334 335 344 325 315 311 306
322 328 334 335 331 327 315 310 310 310 311 311 313 315 321 333 334 342 344 349 354 350 348 341 328 316 314 315 315 310 318 313 315 311 324 320 315 314 298 303 301 309 292 297
312 318 318 314 317 317 316 316 321 321 322 319 320 339 348 351 348 336 335 325 329 331 317 313 312 307 305 296 297 290 291 290 284 294 287 293 287 273 296 277 288 296 292 290
304 300 309 317 314 315 312 312 316 319 317 325 334 325 319 323 320 312 308 310 314 310 305 298 295 293 294 297 292 294 294 275 282 281 277 275 274 271 270 273 278 280 283 276
307 308 298 297 303 311 314 312 309 340 325 318 310 308 312 305 297 301 297 299 299 297 292 292 292 292 284 294 278 291 283 284 283 276 276 276 278 286 282 277 277 276 267 291
314 311 304 297 303 310 316 312 325 317 309 302 294 290 297 294 294 289 287 291 294 292 290 289 289 281 283 280 279 274 273 273 273 275 275 280 281 283 286 280 283 293 311 280
329 319 314 307 307 304 303 301 308 307 299 297 291 298 287 286 286 291 291 285 284 283 287 293 293 287 290 292 275 279 285 278 274 272 278 286 291 305 277 293 284 276 285 284
Wind_Speed
128 127 123 121 115 117 120 120 121 117 120 118 118 128 123 124 128 109 107 104 101 103 105 114 111 118 123 123 116 118 105 103 104 109 104 102 103 101 106 104 87 108 97 97
128 128 127 120 123 123 118 119 122 118 118 123 117 115 112 117 117 118 115 112 110 113 109 104 106 105 109 117 116 113 110 106 107 106 104 100 103 99 102 97 96 105 103 92
129 127 127 126 124 124 123 125 122 124 124 124 121 116 122 118 118 119 122 118 119 120 116 116 103 103 106 106 106 109 114 109 105 106 103 100 110 95 96 107 100 105 107 105
115 127 123 123 124 123 125 127 127 123 115 124 122 118 113 120 119 122 124 119 121 118 119 122 116 112 110 109 110 109 109 108 92 109 111 98 97 106 92 103 102 114 114 111
100 100 109 114 118 123 124 125 125 125 124 124 126 115 125 121 123 119 116 120 126 120 121 121 117 117 113 114 114 111 112 110 108 106 113 115 109 106 111 117 119 123 121 112
96 86 90 102 112 120 121 122 124 125 125 127 127 129 127 128 126 127 128 125 126 124 122 121 123 121 118 104 105 106 103 107 112 114 117 120 113 42 115 120 48 123 123 119
62 71 89 92 103 111 112 122 121 119 125 123 126 125 124 123 128 130 132 125 126 126 123 121 123 121 122 115 117 115 112 112 117 121 119 118 114 113 116 122 120 124 115 110
55 57 53 87 91 98 107 116 107 116 124 124 119 120 124 121 125 127 129 126 126 123 124 123 124 124 122 120 118 115 115 117 120 121 122 121 114 118 122 121 114 116 115 111
60 64 65 69 68 91 99 99 113 119 120 121 122 123 123 121 121 124 126 125 126 127 126 122 125 120 124 114 117 117 119 120 120 120 120 123 114 98 103 108 92 95 97 94
63 64 69 73 74 76 76 89 98 103 98 105 111 115 118 116 123 123 126 125 125 125 124 126 126 124 126 123 122 119 122 125 116 114 116 109 7 93 101 102 97 96 93 92
70 78 72 72 78 77 82 84 89 94 94 104 105 109 111 113 116 120 119 118 115 121 99 125 125 123 121 124 122 114 112 111 108 109 108 103 13 64 92 94 93 34 63 83
77 67 76 74 78 81 84 84 88 90 88 95 87 95 101 109 110 110 112 111 109 102 104 103 105 107 108 105 106 109 108 110 114 106 105 105 103 94 89 90 86 86 84 82
56 77 71 80 75 84 81 92 88 92 94 96 97 105 108 107 106 110 106 105 104 102 103 102 102 103 102 103 103 108 108 111 107 107 100 103 101 90 90 91 86 86 85 84
67 71 81 73 66 77 76 90 89 89 93 98 105 110 110 105 105 105 102 102 103 101 100 100 101 104 106 106 109 109 113 109 108 105 110 94 94 95 72 88 89 85 84 82
68 61 66 79 87 77 86 87 89 91 94 101 108 105 105 102 100 99 103 101 105 103 103 104 103 101 111 109 111 110 109 104 119 96 95 93 86 91 94 91 87 83 75 68
75 70 73 70 73 78 81 86 95 84 78 110 108 109 109 109 103 108 111 117 118 119 108 112 110 117 119 121 120 118 90 95 78 5 14 15 17 84 85 83 77 71 68 65
27 29 33 45 45 40 41 46 52 55 60 54 47 49 52 59 60 56 53 51 53 57 60 63 64 67 66 65 64 80 81 52 12 73 74 73 73 72 72 71 69 70 69 66
29 30 37 40 37 42 42 40 44 52 53 50 50 50 51 52 52 52 52 52 52 55 57 60 61 60 62 59 66 68 71 69 68 70 73 73 73 75 75 68 72 69 70 71
30 31 33 33 35 33 36 37 37 40 42 42 41 16 46 48 48 48 49 49 48 48 41 22 43 55 56 56 58 60 61 59 45 41 45 46 35 30 13 16 20 23 33 26
29 31 31 32 34 34 35 37 39 39 41 41 42 46 46 45 43 40 41 45 46 49 47 48 50 49 49 50 26 27 16 14 19 23 20 7 6 6 4 10 12 16 16 16
22 28 30 30 31 32 33 35 36 37 38 40 40 39 38 40 40 41 22 43 44 43 43 43 37 20 20 12 12 7 4 1 5 7 8 9 7 7 8 20 23 22 21 20
18 18 19 21 24 26 29 32 33 33 35 35 35 35 36 33 32 31 29 27 21 16 16 17 14 17 16 14 12 10 7 7 5 5 9 12 10 13 11 14 16 22 21 25
20 20 20 20 19 20 21 21 21 22 21 22 22 20 18 15 17 17 16 16 15 17 15 17 21 18 15 16 14 14 11 11 12 6 7 4 8 18 11 17 13 14 16 19
22 20 18 18 18 20 21 23 20 19 19 19 20 18 16 18 21 19 17 18 21 21 23 24 25 21 20 20 17 19 16 18 13 11 13 14 15 17 19 19 17 17 15 14
24 22 22 21 20 19 19 19 20 21 23 22 21 20 22 23 21 22 21 22 24 26 30 31 26 23 22 21 20 16 17 18 18 19 19 19 19 21 23 23 23 21 19 23
25 24 25 23 21 20 19 20 22 24 25 24 23 22 23 24 25 23 23 24 25 29 29 28 27 24 25 24 22 21 22 22 23 23 23 24 25 25 26 23 23 25 27 22
24 26 25 24 22 21 21 20 22 28 27 29 27 28 25 23 25 25 25 24 23 23 22 23 26 25 25 28 24 25 28 26 24 22 27 32 34 34 20 25 20 22 22 22
Wind_Direction
228 233 231 232 230 232 234 238 240 242 242 245 246 247 249 254 258 259 258 258 259 260 261 263 264 266 267 267 271 272 274 270 271 272 271 273 274 272 275 279 277 278 280 282
229 228 231 235 231 237 244 241 241 242 242 243 244 247 246 248 252 255 258 260 259 259 260 260 260 262 263 266 268 269 271 272 274 273 273 273 272 274 274 276 283 281 285 288
227 228 228 228 235 237 241 239 244 243 246 244 245 246 248 251 253 258 257 255 262 264 263 264 259 259 261 263 264 266 270 271 272 274 281 283 279 274 285 282 283 284 280 282
221 225 227 229 231 237 237 239 241 244 249 250 250 248 254 253 256 255 259 261 258 259 260 264 263 264 264 265 266 266 266 268 279 270 275 281 283 286 283 289 283 283 283 284
220 219 219 225 230 234 236 237 238 240 244 248 247 253 252 255 254 257 260 261 256 262 260 263 266 267 269 267 268 267 268 271 279 281 280 281 282 284 285 283 284 283 284 285
220 218 218 220 223 229 234 236 237 239 240 242 244 247 249 251 255 256 257 259 254 257 259 262 262 266 265 272 274 275 279 282 280 279 280 278 278 269 281 280 277 283 285 287
210 218 217 219 220 223 225 234 235 236 240 239 241 244 245 247 249 251 252 260 259 258 259 259 261 267 265 270 268 270 277 278 276 276 276 279 278 279 279 280 282 283 285 286
192 208 209 218 221 224 223 232 234 235 241 243 243 244 246 246 249 251 252 254 258 258 259 261 262 263 266 270 271 273 274 274 273 274 276 276 278 280 280 280 280 282 284 284
194 194 202 219 219 223 227 227 232 243 241 240 243 245 247 248 247 250 253 256 257 258 258 262 261 268 265 272 271 271 269 271 273 273 274 276 277 278 276 278 276 278 278 280
214 214 216 217 219 222 221 226 229 234 235 239 242 244 245 247 247 245 248 249 252 254 258 262 263 266 267 270 271 273 274 274 274 275 276 275 102 280 277 276 276 278 277 277
210 204 209 212 213 221 224 225 218 231 232 238 241 244 246 246 249 252 255 255 255 256 259 261 263 265 266 267 270 272 273 274 273 272 273 279 192 270 273 274 276 258 270 274
209 216 209 214 214 214 219 224 228 226 228 235 232 230 232 241 246 247 252 255 257 254 256 253 256 263 264 266 269 272 275 274 271 276 282 283 286 276 273 273 274 275 275 275
224 216 221 216 220 219 224 221 226 226 231 226 227 234 245 243 248 249 253 256 257 252 253 261 264 265 267 271 272 273 276 276 278 281 283 281 273 278 279 276 274 276 278 278
223 224 219 225 227 229 231 226 230 233 235 231 232 237 239 246 248 249 254 256 256 260 261 265 266 267 268 271 272 273 274 277 279 279 278 274 276 276 275 278 279 276 275 275
233 229 226 226 226 233 231 229 230 233 236 237 238 241 245 249 252 255 257 259 259 261 263 264 265 266 266 269 271 270 270 273 274 273 271 274 275 276 277 277 278 277 277 274
234 234 233 237 242 241 241 233 229 234 240 237 240 242 245 248 252 253 252 254 254 254 257 259 260 262 262 262 264 267 264 264 266 263 276 282 290 270 270 271 272 271 271 271
210 212 212 223 222 220 219 219 220 221 225 233 236 237 238 241 242 242 241 239 239 239 243 248 252 255 258 261 264 260 264 264 252 271 268 269 268 267 265 266 267 269 269 270
202 200 200 213 212 213 217 220 223 225 228 231 235 238 239 241 243 245 247 247 247 248 251 253 256 259 260 260 260 261 263 266 269 270 272 273 273 273 271 266 265 263 265 267
204 204 206 206 210 214 215 219 220 222 225 228 232 227 238 240 243 246 247 249 249 249 249 244 253 257 261 261 262 265 268 270 265 263 265 268 276 277 262 232 223 233 251 252
209 211 212 212 211 213 217 217 219 222 225 227 230 234 236 239 240 242 245 246 248 251 253 256 260 264 266 269 267 267 265 259 261 263 257 244 256 263 232 209 176 167 178 189
200 211 217 220 220 221 223 226 226 227 229 230 232 234 234 237 238 240 243 248 250 254 258 262 262 247 253 239 243 238 232 138 210 221 121 94 121 154 150 151 168 191 190 207
196 198 202 209 217 221 224 226 229 230 232 235 238 242 243 243 243 243 241 239 236 230 218 222 224 232 231 222 199 215 181 190 154 139 124 128 139 151 195 197 203 199 231 231
197 199 197 197 197 199 204 210 213 218 221 224 228 219 214 192 187 193 191 199 195 189 203 201 197 211 208 214 213 221 221 218 229 200 210 193 214 247 176 234 225 233 247 257
198 201 199 200 201 205 208 212 211 209 211 204 184 184 178 172 165 178 183 185 187 183 181 195 208 207 203 198 207 199 199 237 227 234 238 240 244 246 247 247 241 248 251 250
205 203 198 200 202 202 205 204 206 187 186 178 180 177 170 174 187 180 186 184 181 188 197 213 216 205 215 200 229 219 225 229 235 238 244 246 247 251 252 258 264 255 255 272
202 204 204 204 205 203 198 197 188 186 182 182 191 198 186 187 188 192 200 193 194 202 210 219 223 223 221 230 232 234 238 246 254 258 262 262 262 265 264 271 275 277 289 253
193 197 199 202 201 199 199 200 192 188 190 186 192 189 197 202 200 199 205 208 209 215 221 229 231 235 235 233 245 246 241 255 265 271 276 272 276 277 263 283 261 244 252 254